Location: Olda
(45.8833°N, 9.5500°E)
Time: 20:54:22
(UTC+00:00)

Cosmos 1503 Rocket - Pass Details

Date: 03 March 2021
Orbit: 753 x 790 km, 74.0° (Epoch: 13 April)

Event Time Altitude Azimuth Distance (km) Brightness Sun altitude
Rises 18:29:24 0° 337° (NNW) 3,230 7.6 -14.4°
Reaches altitude 10° 18:31:47 10° 337° (NNW) 2,296 6.8 -14.8°
Maximum altitude 18:37:00 84° 251° (WSW) 765 4.0 -15.7°
Drops below altitude 10° 18:42:09 10° 163° (SSE) 2,270 6.2 -16.6°
Sets 18:44:29 0° 163° (SSE) 3,191 7.0 -17.0°
